This is the latest recevied weather packets stored in our database for station/object DR0T. If no packets are shown the sender has not sent any weather packets the latest 10 day(s).
| Time | Temp. | Humidity | Pressure | Rain* | Wind** | Luminosity | Snow |
|---|---|---|---|---|---|---|---|
| 1777629748 | 15.56° C | 40% | 1027.8 hPa | 0 mm | - | - | - |
| 1777629446 | 15° C | 40% | 1027.8 hPa | 0 mm | - | - | - |
| 1777629146 | 15.56° C | 39% | 1027.8 hPa | 0 mm | - | - | - |
| 1777628844 | 16.11° C | 40% | 1028 hPa | 0 mm | - | - | - |
| 1777628543 | 15.56° C | 42% | 1028 hPa | 0 mm | - | - | - |
| 1777628245 | 15.56° C | 41% | 1027.9 hPa | 0 mm | - | - | - |
| 1777627942 | 15.56° C | 43% | 1027.8 hPa | 0 mm | - | - | - |
| 1777627639 | 15° C | 41% | 1028.1 hPa | 0 mm | - | - | - |
| 1777627338 | 14.44° C | 41% | 1028 hPa | 0 mm | - | - | - |
| 1777627036 | 14.44° C | 41% | 1028 hPa | 0 mm | - | - | - |
| 1777626755 | 13.89° C | 41% | 1028 hPa | 0 mm | - | - | - |
| 1777626454 | 14.44° C | 41% | 1028 hPa | 0 mm | - | - | - |
| 1777626157 | 14.44° C | 42% | 1027.9 hPa | 0 mm | - | - | - |
| 1777625852 | 14.44° C | 42% | 1028 hPa | 0 mm | - | - | - |
| 1777625550 | 13.89° C | 43% | 1027.9 hPa | 0 mm | - | - | - |
| 1777625249 | 13.33° C | 43% | 1028 hPa | 0 mm | - | - | - |
| 1777624947 | 12.78° C | 42% | 1027.9 hPa | 0 mm | - | - | - |
| 1777624646 | 12.78° C | 42% | 1028 hPa | 0 mm | - | - | - |
| 1777624345 | 12.78° C | 42% | 1027.9 hPa | 0 mm | - | - | - |
| 1777624043 | 12.78° C | 42% | 1027.8 hPa | 0 mm | - | - | - |
| 1777623743 | 12.22° C | 43% | 1027.8 hPa | 0 mm | - | - | - |
| 1777623445 | 12.78° C | 42% | 1027.9 hPa | 0 mm | - | - | - |
| 1777623140 | 12.78° C | 43% | 1027.8 hPa | 0 mm | - | - | - |
| 1777622839 | 12.22° C | 43% | 1027.7 hPa | 0 mm | - | - | - |
| 1777622537 | 11.67° C | 43% | 1027.8 hPa | 0 mm | - | - | - |
* Rain latest hour (hover to see other rain measurements)
** Current wind speed in m/s (hover to see current wind gust speed)